Temperature
20 19 19 19 19 20 22 23 24 24 25 26 26 26 25 23 22 20 19 19 19 19 19 19 19 19 18 18 18 18 18 18 18 18 18 18 18 18 18 18 18 18 18 18 18 18 18 18 18
20 19 19 19 20 22 22 24 24 25 26 26 26 26 24 23 21 20 19 19 19 19 18 19 19 18 18 18 18 18 18 18 18 18 18 18 18 18 18 18 18 18 18 18 18 18 18 18 18
20 19 20 20 22 22 23 24 25 26 26 26 26 25 23 22 21 19 19 19 19 18 18 18 18 18 18 18 18 18 18 18 18 18 18 18 18 18 18 18 18 18 18 18 18 18 18 18 18
20 20 20 21 23 24 25 25 26 26 26 26 26 24 22 21 20 19 19 19 19 18 18 18 18 18 18 18 18 18 18 18 18 17 17 17 17 18 18 18 18 18 18 18 18 18 18 18 18
20 20 21 22 24 24 25 26 26 26 26 26 25 23 21 20 20 20 20 19 19 18 18 18 18 18 18 18 17 17 17 17 17 17 17 17 17 17 18 18 18 18 18 18 18 18 18 18 18
20 21 22 23 24 24 25 26 26 26 26 26 25 23 21 20 20 20 20 19 19 19 18 18 18 18 18 17 17 17 17 17 17 17 17 17 17 17 17 17 18 18 18 18 18 18 18 18 18
21 21 22 24 24 24 25 26 26 26 26 25 25 23 21 20 20 20 19 19 19 19 18 18 18 18 17 17 17 17 17 17 17 17 17 17 17 17 17 17 17 17 17 18 18 18 18 18 18
21 22 23 24 24 24 25 25 26 26 25 25 25 24 22 20 20 20 19 19 19 19 18 18 18 17 17 17 17 17 16 16 16 16 16 16 17 17 17 17 17 17 17 17 17 18 18 18 18
22 22 22 24 24 24 26 26 26 26 25 25 24 23 22 21 20 20 20 19 19 19 19 18 18 18 17 17 17 16 16 16 16 16 16 16 16 16 17 17 16 16 17 17 17 17 17 18 18
23 22 23 25 25 25 26 26 26 26 25 25 24 23 22 21 21 20 20 20 20 19 19 19 18 18 17 17 17 16 16 16 16 16 16 16 16 16 16 16 16 16 16 16 17 17 17 17 18
24 24 24 25 26 26 26 26 26 26 24 25 24 23 22 22 21 21 21 20 20 19 19 19 18 18 17 17 17 16 16 16 16 16 15 16 16 16 16 16 16 16 16 16 16 17 17 17 17
25 26 26 25 25 26 26 26 26 25 25 24 24 23 22 22 22 22 21 21 20 19 19 18 18 18 17 17 16 16 16 16 15 15 15 15 15 15 15 16 16 16 16 16 16 16 16 17 17
25 25 26 26 26 26 26 26 25 25 25 24 24 23 23 23 22 22 21 21 20 19 19 18 18 17 17 16 16 16 16 15 15 15 15 15 15 15 15 15 16 16 16 16 16 16 16 16 17
25 25 26 26 26 26 26 26 26 25 25 25 24 23 23 23 22 22 21 21 20 19 19 18 17 17 16 16 16 16 15 15 15 15 15 15 15 15 15 15 15 15 15 16 16 16 16 16 16
25 25 25 25 26 26 26 25 26 25 25 25 24 24 23 23 22 22 21 21 20 19 19 18 17 16 16 16 15 15 15 15 15 15 15 15 15 15 15 15 15 15 15 15 15 15 16 16 16
25 25 23 24 25 25 25 24 25 25 25 25 24 24 23 23 22 22 21 21 20 19 18 17 17 16 16 15 15 15 15 15 14 14 14 14 14 14 14 14 14 14 15 15 15 15 15 15 16
24 24 24 24 24 25 25 25 25 25 25 25 24 24 23 23 22 22 21 20 20 19 18 17 17 16 15 15 15 15 15 14 14 14 14 14 14 14 14 14 14 14 14 14 15 15 15 15 15
22 24 24 24 24 25 25 25 26 25 25 25 25 24 24 23 22 22 21 20 19 19 18 17 16 16 15 15 15 14 14 14 14 14 13 13 13 13 13 14 14 14 14 14 14 14 15 15 15
23 23 24 25 25 25 26 26 26 26 26 25 25 25 24 24 23 22 21 20 19 19 18 17 17 16 15 15 15 14 14 14 14 14 13 13 13 13 13 13 13 13 13 14 14 14 14 14 15
24 24 24 25 26 26 26 26 27 27 26 26 26 25 25 24 23 21 20 20 19 18 18 17 17 16 15 15 14 14 14 14 14 13 13 13 13 13 13 13 13 13 13 13 14 14 14 14 14
24 24 25 24 25 26 26 26 27 27 27 26 26 25 25 25 23 21 21 20 19 18 18 17 17 16 15 15 14 14 14 14 14 13 13 13 13 13 13 13 13 13 13 13 13 13 14 14 14
24 25 26 26 25 25 26 24 26 26 25 26 26 25 25 25 24 22 21 20 19 18 18 17 16 16 15 15 14 14 14 14 14 13 13 13 13 13 13 13 13 13 13 13 13 13 13 14 14
25 25 26 26 25 25 26 25 26 26 25 25 25 25 25 24 24 22 21 20 19 19 18 17 16 16 15 15 14 14 14 14 14 13 13 13 13 13 13 13 13 13 13 13 13 13 13 13 14
26 26 26 26 25 24 26 25 25 26 26 26 26 26 25 24 23 22 21 20 19 18 17 17 16 15 15 15 14 14 14 14 13 13 13 13 13 13 13 13 13 13 13 13 13 13 13 13 13
26 25 24 24 23 24 26 26 25 26 27 27 26 26 25 24 23 22 21 20 19 18 17 16 16 15 15 15 14 14 14 14 13 13 13 13 13 13 13 13 13 13 13 13 13 13 13 13 13
26 26 23 22 23 24 26 26 26 27 27 26 26 25 25 24 23 22 21 20 19 18 17 16 16 15 15 15 14 14 14 14 13 13 13 13 13 13 13 13 13 13 13 13 13 13 13 13 13
26 26 26 24 24 24 26 27 26 26 26 26 26 25 24 24 23 22 21 19 18 18 17 16 16 15 15 15 14 14 14 14 13 13 13 13 13 13 13 13 13 13 13 13 13 13 13 13 13
26 26 25 24 23 23 25 26 25 25 25 26 25 25 24 24 23 22 20 19 18 18 17 16 16 15 15 15 14 14 14 13 13 13 13 13 13 13 13 13 13 13 13 13 13 13 13 13 13
26 26 26 25 25 24 23 24 27 26 26 26 26 25 25 24 23 22 20 19 18 18 17 16 16 15 15 15 14 14 14 14 13 13 13 13 13 13 13 13 13 13 13 13 13 13 13 13 13
27 26 26 24 24 24 24 24 27 27 26 26 26 25 25 24 23 22 20 19 18 18 17 16 16 16 15 15 14 14 14 14 14 13 13 13 13 13 13 13 13 13 13 13 13 13 13 13 13
Wind_Speed
8 8 5 2 2 3 1 1 3 3 2 4 6 8 12 11 7 6 2 5 10 13 14 13 12 11 9 8 7 7 6 6 6 5 5 5 5 4 4 4 3 4 4 4 4 4 4 4 4
7 6 4 3 3 2 1 2 4 4 3 3 5 9 12 11 10 7 4 7 10 12 12 12 12 10 9 8 7 6 5 4 4 4 3 3 3 3 3 3 3 4 4 4 4 3 3 3 3
8 6 3 3 3 1 2 3 4 6 4 4 5 9 8 7 9 5 6 8 11 12 13 13 11 10 9 7 7 5 4 4 3 1 1 1 2 2 3 3 3 4 4 4 5 4 4 4 3
4 3 4 4 5 1 3 4 4 5 4 4 6 8 8 8 7 8 9 10 11 12 13 12 11 9 8 7 6 5 4 3 1 1 2 2 2 2 2 3 3 3 4 4 5 5 5 5 4
3 3 4 5 3 2 2 4 4 5 4 6 8 10 9 10 11 10 9 9 10 11 12 12 11 10 8 7 5 4 3 2 0 2 3 4 5 5 5 4 4 4 4 5 5 5 6 6 5
3 3 4 3 1 2 2 2 2 5 4 5 7 9 8 10 10 8 8 8 9 9 9 12 12 10 8 7 5 3 1 0 1 3 4 6 7 7 6 7 7 7 6 6 6 6 6 6 6
3 4 5 3 1 1 1 1 2 3 4 5 4 7 9 10 9 8 8 8 7 6 7 7 9 10 9 8 7 4 2 2 3 4 5 7 8 10 10 10 10 9 8 7 7 7 7 7 7
3 4 6 2 2 1 2 1 2 4 4 4 3 6 9 11 10 9 7 6 5 5 5 5 4 6 7 8 8 6 4 4 5 6 7 9 10 12 13 12 12 11 10 8 8 8 8 7 8
4 3 5 2 2 2 3 2 2 2 3 3 8 9 12 14 12 9 6 6 5 5 4 4 3 4 3 2 6 5 6 7 7 8 10 10 9 9 10 11 11 12 11 10 10 10 10 9 9
5 3 4 2 2 3 2 1 1 2 3 4 9 11 12 12 10 8 7 6 5 4 4 5 4 3 3 3 3 1 0 3 5 4 4 6 6 5 5 7 10 12 12 12 12 12 10 9 8
6 5 3 2 2 1 2 1 2 1 2 2 8 11 10 10 9 7 6 6 5 5 5 4 4 3 3 2 2 2 2 1 2 3 3 3 3 3 3 3 6 9 11 9 10 10 8 7 6
8 5 3 1 0 1 0 1 2 0 2 3 6 10 10 9 9 6 5 6 6 6 5 4 4 4 4 4 2 1 0 1 1 3 5 2 1 2 1 1 2 3 5 4 4 4 5 6 6
10 6 4 2 1 2 2 2 2 2 3 5 8 10 9 8 7 7 5 5 6 6 4 5 4 6 4 3 2 2 1 1 2 2 5 3 2 3 3 2 1 2 3 3 4 4 4 4 4
6 6 5 3 4 3 4 5 5 4 5 6 7 7 8 6 5 5 6 5 5 5 5 6 5 5 4 4 3 3 2 0 2 2 5 4 2 3 2 3 2 2 2 2 2 4 3 3 3
6 6 5 4 5 4 4 7 6 5 6 7 7 7 7 6 5 5 5 4 5 5 6 6 3 4 5 5 5 3 2 2 2 2 6 6 4 3 3 3 3 3 3 2 2 2 2 3 4
7 6 5 5 5 4 4 5 2 5 7 7 7 8 7 5 5 5 6 5 5 5 6 5 3 4 5 4 4 3 2 3 2 3 4 7 6 5 2 3 3 3 3 2 2 1 1 2 2
6 6 6 5 7 6 6 5 6 6 7 8 8 9 9 8 7 6 7 6 6 5 5 5 5 3 4 2 2 2 2 2 1 2 3 5 7 7 3 3 3 3 2 3 3 1 1 2 2
4 6 5 4 6 8 7 7 6 9 9 8 8 9 10 9 9 8 7 6 6 4 4 6 4 2 3 2 3 2 2 3 2 2 2 4 5 6 4 4 3 3 2 2 3 2 2 2 2
5 6 5 2 4 6 7 8 6 9 9 9 9 9 10 10 10 9 9 7 6 5 4 5 3 3 3 3 2 2 2 2 2 2 2 3 4 5 4 4 3 3 2 3 3 2 3 2 1
7 8 7 2 2 5 7 9 7 8 10 9 8 9 9 10 11 11 9 8 5 5 3 3 4 4 4 2 1 1 2 2 1 1 2 3 4 3 5 4 3 2 2 2 3 2 1 2 1
9 6 6 4 7 9 9 9 8 7 7 7 6 5 5 8 11 13 10 9 6 5 4 3 3 4 4 2 1 2 2 2 1 2 2 2 2 2 3 4 4 3 2 1 3 1 1 1 2
4 4 6 6 7 6 6 6 5 7 8 8 7 6 5 6 8 11 10 9 7 6 5 4 4 3 4 3 2 2 2 2 2 2 1 3 1 2 2 4 4 3 2 2 3 1 1 1 1
1 3 7 9 9 9 10 7 2 8 8 9 9 8 7 6 8 9 10 8 7 7 5 3 4 4 4 3 2 2 2 2 2 2 2 3 2 2 2 3 4 3 2 2 2 2 1 0 0
3 6 9 10 8 8 6 4 2 3 4 5 8 8 8 8 8 8 9 8 7 7 6 3 4 4 4 1 1 1 1 2 3 3 3 3 1 1 2 3 3 3 3 2 2 2 1 0 0
5 6 4 3 3 3 2 2 1 6 6 5 5 6 7 8 8 9 9 9 8 8 6 4 4 4 4 2 2 1 1 1 2 2 2 3 2 2 3 3 3 3 3 2 2 2 1 1 0
5 6 2 3 5 6 5 3 5 9 7 6 4 4 5 7 7 9 10 9 9 8 7 5 5 4 4 3 1 1 2 0 1 2 2 2 2 2 2 2 2 2 3 3 2 2 2 1 0
5 4 3 5 10 8 4 2 7 8 7 6 5 5 5 6 7 8 10 10 9 9 8 6 6 5 4 3 1 1 1 1 1 1 2 2 2 2 3 3 2 1 1 2 2 2 2 2 1
6 7 4 4 5 6 6 3 4 6 5 5 6 6 7 7 7 8 9 9 9 8 8 7 6 5 5 3 2 2 1 1 0 1 2 3 3 2 3 3 3 2 1 1 2 2 2 2 1
7 6 5 5 6 5 5 4 4 5 4 2 3 5 7 8 8 8 9 9 9 9 8 7 7 6 5 4 3 3 2 1 1 1 1 1 2 2 2 2 2 2 3 2 2 2 2 2 2
4 6 6 5 6 6 6 2 3 5 4 3 3 3 5 7 8 9 9 9 9 9 8 8 7 7 6 4 3 3 3 2 1 0 0 1 1 1 2 2 3 3 3 3 3 2 2 2 2
Wind_Direction
187 194 202 219 247 241 257 67 84 71 44 31 24 54 67 57 49 85 113 84 99 107 109 105 102 99 96 94 92 88 83 75 66 56 46 35 27 21 12 1 358 354 354 357 360 358 4 7 11
204 189 212 236 254 266 59 77 85 76 60 41 44 59 71 66 71 89 91 93 101 102 105 103 101 98 93 90 89 86 82 73 66 56 44 32 18 5 359 349 341 335 330 327 330 331 333 338 348
218 214 238 240 257 294 96 98 96 78 49 45 61 62 57 69 73 92 108 110 103 99 101 101 101 97 92 87 83 80 78 68 64 50 11 345 340 342 345 334 334 330 319 311 312 311 306 307 312
200 224 248 248 264 5 87 98 90 89 64 53 70 77 70 66 89 113 121 114 108 107 107 110 107 103 97 89 83 75 70 63 46 260 245 259 283 296 304 299 308 314 315 312 312 307 298 293 294
217 245 256 256 272 77 75 93 89 87 68 57 70 92 93 90 104 111 111 109 109 111 116 122 121 117 112 102 92 79 69 63 306 258 248 246 254 262 261 257 266 277 289 303 304 298 296 288 284
239 250 264 280 60 93 67 53 75 77 77 76 89 101 106 114 108 106 102 94 100 109 118 126 136 137 136 129 118 99 87 231 266 264 257 253 252 252 255 247 249 256 263 277 288 289 288 285 277
246 266 269 281 116 134 99 55 74 93 79 56 74 107 124 119 116 112 102 94 94 102 108 125 142 146 146 138 132 136 161 223 246 250 249 250 247 249 248 243 244 247 251 259 267 277 281 278 270
243 282 288 286 99 102 99 70 52 71 65 56 44 97 129 132 130 116 111 111 114 106 103 107 116 118 137 150 153 163 184 208 230 239 241 246 250 247 245 240 238 239 241 247 255 263 270 271 266
251 262 286 320 68 129 138 141 106 90 106 88 71 85 122 134 135 135 140 139 128 110 114 114 99 100 112 162 150 182 201 207 228 234 233 239 247 244 238 230 226 228 233 239 245 252 255 259 257
214 244 272 338 66 118 137 130 143 158 126 111 107 109 124 141 146 155 160 148 130 114 84 78 73 87 75 25 86 64 261 197 239 253 233 234 253 259 251 216 222 228 233 237 241 246 248 248 246
225 236 279 321 334 123 148 181 250 244 110 119 134 137 145 156 156 163 152 127 115 101 77 65 51 56 66 62 52 24 310 290 299 326 310 286 295 281 249 205 217 226 230 231 236 236 233 232 234
240 250 231 263 310 322 235 177 241 112 98 96 121 141 156 172 164 158 141 118 113 93 69 54 32 45 47 57 15 249 16 21 355 354 336 340 322 302 284 244 213 217 225 214 223 220 226 231 235
236 249 240 217 252 259 256 229 239 182 153 142 144 149 163 171 155 148 132 122 120 109 102 73 33 35 27 55 304 4 46 11 359 357 324 350 344 319 318 278 250 246 244 214 218 222 231 241 245
227 234 232 224 234 241 250 241 225 205 174 161 153 160 169 158 146 142 139 140 121 109 93 80 44 38 18 17 2 23 4 2 12 6 328 346 337 300 315 311 303 282 274 254 228 222 221 244 243
223 233 235 234 239 232 261 255 228 181 172 174 172 172 163 157 157 160 135 121 106 100 91 85 58 41 36 23 2 360 343 18 14 9 343 346 347 335 330 328 324 312 299 284 276 272 233 245 243
228 233 243 251 249 220 237 271 177 155 182 183 183 171 158 163 184 153 130 117 105 96 88 86 51 43 48 33 343 342 5 13 357 9 0 345 346 351 334 332 318 306 320 313 284 258 259 259 256
230 228 230 223 224 233 225 262 175 178 204 196 187 180 170 178 188 153 134 126 112 109 111 102 74 43 54 24 311 2 12 345 346 15 20 350 344 349 349 319 299 316 328 324 305 319 293 270 263
242 259 239 206 205 235 241 255 200 191 204 209 194 190 183 188 178 156 139 127 123 123 117 106 109 87 63 36 359 24 10 342 5 15 30 354 336 347 337 309 322 332 330 319 311 312 305 272 251
263 278 280 243 202 235 257 263 232 198 193 205 204 203 195 184 167 148 142 139 143 138 118 114 113 101 84 57 3 358 347 326 1 352 23 342 345 349 321 324 327 331 324 312 308 309 307 295 266
249 268 276 309 269 262 269 269 246 203 196 203 213 210 200 174 159 145 151 148 159 144 131 126 107 90 87 83 351 312 350 324 355 333 351 350 353 348 330 336 325 317 294 301 298 293 286 289 283
240 262 300 320 292 274 274 271 245 191 187 185 205 225 211 175 165 157 160 152 159 152 143 131 115 118 105 99 41 2 348 301 341 350 25 341 338 346 338 329 323 313 312 302 287 284 285 275 286
257 304 299 294 291 299 287 293 266 169 171 184 187 204 215 172 154 150 153 155 161 152 140 144 128 112 101 92 66 333 304 2 3 352 10 314 359 7 352 328 321 315 324 320 307 334 291 257 287
264 284 288 284 283 285 275 275 266 150 172 184 181 188 191 168 152 149 152 154 154 139 132 132 120 107 95 84 113 288 352 8 354 344 5 336 27 1 5 336 325 330 337 341 324 325 303 282 242
277 275 267 256 262 269 268 276 315 132 138 149 158 168 169 162 151 149 145 140 134 123 125 129 124 112 111 137 195 203 28 2 340 351 2 331 336 359 23 343 336 346 350 346 343 331 329 12 286
248 276 302 292 242 281 340 266 173 98 91 99 130 153 152 151 153 151 145 142 139 137 143 154 150 140 142 189 217 135 84 335 346 0 343 326 351 11 11 355 347 357 346 339 344 322 306 279 122
242 257 276 317 318 313 275 230 113 109 101 99 106 115 134 148 154 155 150 148 148 151 157 167 158 153 155 198 196 132 123 296 21 10 327 345 4 358 355 343 342 349 350 349 349 327 310 356 33
271 269 288 286 290 289 281 126 120 121 129 145 158 156 169 162 154 153 151 152 155 160 163 169 164 168 163 188 175 125 103 84 33 326 323 355 346 0 5 337 336 357 17 359 355 355 356 5 24
277 307 310 290 307 309 315 337 98 123 133 157 180 182 183 168 162 159 156 158 160 163 164 167 169 170 162 175 193 144 110 90 39 327 17 1 352 9 337 343 354 11 32 48 37 18 1 10 39
220 252 271 282 280 297 319 351 61 101 103 146 198 185 180 170 165 162 158 160 160 159 163 170 174 173 160 171 180 141 151 184 240 209 52 310 322 352 338 343 359 22 32 41 51 17 29 26 13
284 287 292 296 306 311 303 317 92 115 130 166 197 188 173 162 160 159 159 161 163 168 174 177 178 170 159 169 170 166 169 175 238 215 138 303 327 339 339 358 18 31 39 35 33 14 51 59 24
Height
1496 1496 1497 1500 1501 1501 1497 1489 1483 1484 1483 1481 1480 1480 1484 1490 1495 1506 1505 1503 1503 1503 1504 1505 1507 1507 1509 1510 1511 1512 1513 1514 1515 1516 1517 1518 1518 1519 1520 1520 1521 1522 1522 1523 1523 1523 1523 1523 1523
1495 1497 1499 1499 1500 1503 1497 1486 1484 1483 1482 1482 1482 1483 1487 1493 1497 1501 1503 1504 1504 1504 1505 1506 1507 1508 1509 1510 1510 1511 1512 1513 1514 1515 1516 1517 1518 1518 1519 1520 1520 1521 1522 1522 1522 1523 1523 1523 1523
1495 1497 1499 1497 1496 1497 1494 1483 1481 1482 1482 1482 1484 1486 1491 1497 1500 1502 1504 1504 1505 1505 1506 1506 1507 1508 1509 1509 1510 1511 1511 1512 1513 1514 1515 1516 1517 1517 1518 1519 1519 1520 1521 1521 1522 1522 1522 1523 1523
1496 1498 1497 1496 1493 1486 1482 1481 1480 1482 1483 1483 1484 1489 1496 1499 1501 1503 1505 1505 1506 1506 1506 1507 1507 1508 1508 1509 1509 1509 1510 1510 1511 1512 1513 1514 1515 1515 1516 1517 1518 1518 1519 1520 1520 1521 1521 1522 1522
1496 1496 1496 1494 1488 1483 1480 1479 1480 1482 1483 1484 1486 1492 1498 1501 1503 1504 1505 1506 1507 1507 1507 1507 1508 1508 1508 1508 1508 1508 1509 1509 1509 1510 1511 1511 1512 1513 1514 1515 1516 1516 1517 1518 1519 1519 1520 1520 1521
1496 1494 1497 1495 1488 1482 1480 1480 1481 1482 1484 1485 1488 1492 1499 1502 1504 1505 1506 1507 1508 1508 1508 1508 1508 1508 1508 1508 1508 1508 1508 1508 1508 1508 1508 1509 1510 1510 1511 1512 1513 1514 1515 1516 1517 1517 1518 1519 1519
1495 1493 1492 1489 1488 1484 1481 1481 1481 1483 1484 1486 1488 1492 1499 1502 1504 1506 1507 1508 1508 1509 1509 1509 1509 1508 1508 1508 1507 1507 1506 1506 1506 1506 1506 1507 1507 1508 1509 1509 1510 1511 1512 1513 1514 1515 1516 1517 1517
1492 1492 1489 1486 1487 1486 1481 1481 1483 1484 1486 1488 1489 1491 1498 1502 1504 1506 1507 1508 1508 1509 1510 1510 1510 1509 1508 1507 1507 1506 1506 1505 1505 1505 1505 1505 1505 1506 1506 1507 1507 1508 1509 1510 1511 1512 1513 1514 1515
1491 1494 1493 1485 1485 1484 1481 1482 1484 1485 1487 1489 1490 1493 1497 1500 1503 1505 1507 1508 1508 1509 1510 1510 1510 1509 1508 1508 1507 1506 1505 1505 1504 1504 1504 1504 1504 1504 1504 1505 1505 1505 1506 1507 1508 1509 1511 1512 1513
1488 1492 1487 1480 1479 1480 1480 1482 1484 1485 1486 1489 1492 1495 1498 1500 1503 1504 1506 1507 1508 1509 1510 1510 1509 1509 1508 1508 1507 1506 1505 1505 1504 1504 1504 1504 1503 1503 1504 1503 1503 1504 1504 1505 1505 1507 1507 1509 1510
1482 1483 1480 1479 1479 1479 1480 1483 1484 1485 1487 1489 1491 1495 1497 1500 1502 1504 1505 1506 1508 1509 1509 1509 1509 1508 1508 1507 1506 1505 1505 1505 1504 1504 1503 1503 1503 1502 1502 1502 1502 1502 1502 1502 1503 1504 1504 1506 1507
1478 1476 1477 1478 1479 1479 1480 1482 1483 1485 1488 1488 1490 1494 1497 1499 1500 1503 1504 1506 1507 1508 1509 1509 1509 1508 1507 1506 1505 1505 1504 1504 1503 1503 1502 1502 1501 1501 1501 1501 1501 1500 1501 1501 1501 1502 1502 1503 1505
1476 1476 1476 1477 1479 1479 1481 1482 1483 1484 1487 1488 1491 1494 1496 1498 1500 1502 1503 1505 1506 1507 1508 1508 1508 1507 1506 1505 1504 1504 1503 1503 1502 1501 1501 1500 1500 1500 1499 1499 1499 1499 1499 1499 1499 1500 1500 1501 1502
1475 1475 1475 1476 1478 1479 1479 1480 1482 1483 1485 1487 1490 1493 1495 1497 1499 1501 1502 1504 1505 1506 1507 1506 1507 1506 1505 1504 1504 1503 1502 1502 1501 1500 1500 1499 1499 1498 1498 1497 1497 1497 1497 1498 1498 1498 1498 1498 1499
1473 1474 1475 1476 1477 1477 1479 1480 1479 1481 1483 1486 1489 1492 1494 1496 1498 1500 1502 1503 1504 1505 1506 1505 1506 1505 1504 1503 1502 1502 1501 1500 1500 1499 1498 1498 1497 1497 1496 1495 1495 1495 1495 1496 1496 1496 1496 1496 1497
1472 1475 1482 1477 1476 1476 1482 1485 1478 1479 1482 1484 1487 1490 1492 1495 1497 1499 1500 1503 1504 1504 1505 1504 1505 1504 1503 1502 1501 1501 1500 1499 1498 1498 1497 1496 1495 1495 1494 1493 1493 1493 1493 1493 1493 1494 1494 1494 1495
1476 1481 1483 1480 1475 1475 1478 1480 1476 1478 1480 1482 1485 1487 1490 1493 1496 1497 1499 1501 1503 1504 1504 1504 1503 1503 1502 1501 1500 1499 1499 1498 1497 1496 1495 1494 1493 1493 1492 1491 1491 1491 1491 1491 1491 1492 1492 1492 1493
1487 1481 1478 1480 1475 1474 1475 1474 1472 1474 1477 1479 1481 1484 1487 1490 1493 1495 1498 1500 1502 1503 1503 1502 1502 1502 1501 1500 1499 1498 1498 1497 1496 1495 1494 1493 1492 1491 1490 1490 1489 1489 1489 1489 1489 1489 1490 1490 1491
1479 1481 1480 1476 1471 1472 1472 1470 1468 1470 1473 1476 1478 1481 1483 1486 1490 1492 1495 1498 1500 1501 1502 1501 1501 1501 1500 1499 1498 1497 1497 1496 1495 1494 1493 1492 1491 1489 1489 1488 1487 1487 1487 1487 1487 1487 1487 1488 1489
1478 1481 1478 1472 1468 1469 1469 1467 1463 1464 1468 1472 1474 1477 1479 1483 1486 1490 1493 1496 1499 1500 1501 1501 1500 1500 1499 1498 1497 1497 1496 1495 1494 1493 1492 1491 1490 1488 1487 1487 1486 1486 1485 1485 1485 1486 1486 1486 1487
1476 1477 1476 1476 1473 1466 1468 1469 1462 1460 1464 1468 1472 1475 1477 1480 1484 1487 1491 1494 1497 1498 1499 1500 1499 1499 1498 1497 1496 1496 1495 1494 1493 1492 1491 1490 1489 1488 1486 1485 1485 1485 1484 1484 1484 1484 1485 1485 1486
1478 1471 1470 1471 1476 1476 1470 1482 1465 1459 1464 1466 1470 1473 1476 1478 1482 1485 1488 1492 1494 1496 1497 1498 1498 1498 1497 1496 1495 1495 1495 1494 1493 1492 1490 1489 1488 1487 1486 1485 1484 1484 1483 1483 1483 1483 1484 1484 1485
1471 1469 1468 1469 1473 1476 1470 1475 1467 1458 1464 1464 1467 1471 1474 1477 1480 1483 1487 1490 1493 1494 1495 1496 1496 1496 1495 1495 1494 1494 1494 1493 1492 1491 1490 1489 1488 1486 1485 1484 1483 1483 1482 1482 1482 1482 1483 1483 1484
1466 1468 1467 1468 1473 1485 1470 1475 1474 1462 1461 1461 1463 1468 1472 1475 1479 1482 1485 1488 1491 1492 1493 1495 1495 1495 1494 1494 1494 1494 1493 1493 1492 1491 1490 1489 1488 1486 1485 1484 1483 1482 1482 1481 1481 1481 1482 1482 1483
1469 1477 1489 1490 1490 1485 1465 1471 1470 1459 1457 1460 1463 1466 1470 1473 1477 1480 1483 1486 1489 1490 1491 1493 1493 1493 1493 1493 1493 1493 1493 1492 1492 1491 1490 1489 1488 1486 1485 1484 1483 1482 1481 1481 1480 1481 1481 1482 1482
1469 1474 1496 1508 1500 1485 1468 1469 1463 1455 1457 1461 1464 1467 1469 1472 1476 1479 1481 1484 1486 1488 1490 1491 1491 1492 1492 1492 1493 1493 1492 1492 1491 1490 1490 1489 1487 1486 1485 1483 1482 1481 1481 1480 1480 1480 1480 1481 1481
1470 1471 1471 1483 1483 1484 1470 1459 1459 1455 1459 1462 1465 1467 1470 1472 1474 1477 1479 1482 1484 1486 1487 1489 1490 1490 1491 1491 1492 1492 1492 1491 1491 1490 1489 1489 1488 1486 1485 1484 1483 1482 1481 1480 1480 1480 1480 1480 1480
1467 1467 1474 1483 1492 1494 1478 1467 1467 1463 1461 1461 1463 1466 1468 1471 1473 1475 1477 1480 1482 1484 1485 1487 1488 1489 1489 1490 1490 1491 1491 1490 1490 1490 1489 1488 1487 1486 1485 1484 1483 1482 1481 1480 1480 1480 1480 1480 1480
1468 1469 1470 1474 1476 1489 1493 1481 1457 1458 1458 1460 1461 1463 1465 1468 1471 1473 1475 1478 1480 1482 1483 1485 1486 1487 1488 1488 1489 1489 1489 1489 1489 1489 1488 1488 1487 1487 1486 1485 1484 1482 1482 1481 1480 1480 1480 1480 1480
1463 1466 1470 1483 1483 1478 1485 1479 1453 1454 1455 1457 1459 1461 1463 1465 1468 1470 1473 1475 1477 1479 1481 1482 1484 1485 1486 1487 1488 1488 1488 1488 1489 1489 1488 1488 1487 1487 1486 1485 1484 1483 1482 1481 1481 1480 1481 1480 1480